Find Starlink 34290

NORAD ID: 64929 Int'l Des: 2025-157 Owner: SPXS Country: US Constellation: starlink operational
LEOCIRCULAR

現在のビュー

3D地球を読み込み中...

About Starlink 34290

Starlink 34290 (NORAD 64929) is a starlink constellation satellite (v2 mini) launched Jul 26, 2025 by SPXS of US. It operates in LEO, CIRCULAR orbit with a mass of 575.00 kg.

次回通過

Passes for default location (London). Set your location on the main map for personalized predictions.

高度履歴

Loading altitude history...

軌道要素

1 64929U 25157AB 26263.13701940 .00014965 00000-0 45313-3 0 9998
2 64929 53.1558 159.7084 0001154 100.0120 260.1013 15.34402187 65939
Epoch: Sep 20, 2026 • Age: 14 hours

現在のステータス

高度 464.0 km
遠地点 / 近地点 N/A
速度 7.64 km/s
衛星直下点 30.31°N, 79.75°W
打ち上げ日 Jul 26, 2025
運用期間 1.1 years
タイプ internet

技術仕様

分類 Payload
質量 575.00 kg
乾燥質量 530.00 kg
長さ 0.30 m
スパン 29.00 m
形状 ? Box + pan
製造者 SPXS
バスタイプ Starlink V2MO
フェーズステータス In Orbit
所有者/国 SPXS/US

Most Searched